Preview of NWS' New Version of Forecast
This preview is not operational and should not be used for support decisions.

Regional Weather Roundup (RWR)

Issued by National Weather Service (NWS)

                            
000
ASUS43 KMKX 231300
RWRWI 

WISCONSIN REGIONAL WEATHER ROUNDUP
NATIONAL WEATHER SERVICE MILWAUKEE/SULLIVAN WI
800 AM CDT TUE JUL 23 2019

NOTE: "FAIR" INDICATES FEW OR NO CLOUDS BELOW 12,000 FEET WITH NO
SIGNIFICANT WEATHER AND/OR OBSTRUCTIONS TO VISIBILITY.

WIZ001-002-006>008-014>016-023>028-231400-
NORTHWEST WISCONSIN
  
CITY           SKY/WX    TMP DP  RH WIND       PRES   REMARKS
SUPERIOR ARPT  FAIR      65  58  77 SW3       30.18S                  
ASHLAND        PTSUNNY   64  59  83 S3        30.18R                  
HAYWARD        FAIR      62  58  86 CALM      30.21R                  
SIREN          PTSUNNY   61  56  84 NW6       30.22S                  
CUMBERLAND     NOT AVBL                                               
RICE LAKE      FAIR      64  51  64 CALM      30.23R                  
CHETEK         FAIR      63  58  83 CALM      30.21S                  
LADYSMITH      FAIR      62  56  82 NW7       30.21R                  
EAU CLAIRE     NOT AVBL                                               
MENOMONIE      FAIR      62  55  77 W6        30.22R                  
NEW RICHMOND   FAIR      60  57  89 SW3       30.23S                  
OSCEOLA        FAIR      59  59 100 CALM      30.26R                  
$$
 
WIZ003>005-009-010-017-018-231400-
NORTH CENTRAL WISCONSIN
  
CITY           SKY/WX    TMP DP  RH WIND       PRES   REMARKS
MANITOWISH WTR FAIR      61  60  98 N6        30.18S                  
ARBOR VITAE    FAIR      62  58  87 N5        30.19R                  
WOODRUFF       FAIR      62  58  87 N5        30.19R                  
RHINELANDER    FAIR      63  55  75 VRB7      30.18S                  
EAGLE RIVER    FAIR      61  54  76 N7        30.18R                  
LAND O LAKES   FAIR      61  56  82 NW8       30.19S                  
PHILLIPS       FAIR      60  57  90 NW3       30.19R                  
TOMAHAWK       FAIR      58  54  85 NW3       30.19R                  
MEDFORD        FAIR      60  55  82 N9        30.19S                  
MERRILL        FAIR      63  56  78 N13       30.18S                  
$$
 
WIZ029-030-035-036-043>047-231400-
CENTRAL WISCONSIN
  
CITY           SKY/WX    TMP DP  RH WIND       PRES   REMARKS
WAUSAU         FAIR      64  54  69 N9        30.16R                  
MOSINEE        MOSUNNY   63  55  77 NW5       30.18R                  
MARSHFIELD     FAIR      63  56  78 NW10      30.18R                  
STEVENS POINT  FAIR      63  54  72 N10       30.17R                  
WAUPACA        NOT AVBL                                               
WAUTOMA        FAIR      65  56  72 NW8       30.16R                  
WISC RAPIDS    FAIR      66  56  70 NW9       30.18R                  
CAMP DOUGLAS   NOT AVBL                                               
$$
 
WIZ011>013-019>022-031-037>040-048>050-231400-
NORTHEAST WISCONSIN
  
CITY           SKY/WX    TMP DP  RH WIND       PRES   REMARKS
ANTIGO         FAIR      60  57  88 NW7       30.17S                  
SHAWANO        FAIR      65  58  76 NW8       30.13R                  
OCONTO         FAIR      64  57  77 NW5       30.11S                  
STURGEON BAY   FAIR      65  58  78 NW13      30.10S                  
GREEN BAY      FAIR      65  59  81 NW6       30.12R                  
MANITOWOC      CLOUDY    65  58  78 NW8       30.11R                  
APPLETON       MOSUNNY   63  52  67 NW13      30.12R                  
CLINTONVILLE   FAIR      65  55  69 N8G16     30.14R                  
OSHKOSH        PTSUNNY   66  57  72 NW10      30.13R                  
$$
 
WIZ032>034-041-042-053>061-231400-
SOUTHWEST WISCONSIN
  
CITY           SKY/WX    TMP DP  RH WIND       PRES   REMARKS
LA CROSSE      FAIR      68  59  73 N3        30.20R                  
SPARTA         FAIR      56  54  93 CALM      30.20S                  
VIROQUA        FAIR      63  62  97 NW5       30.21S                  
BOSCOBEL       FAIR      66  60  81 CALM      30.20R                  
PRAIRIE DU CHI FAIR      64  56  75 NW6       30.20R                  
PLATTEVILLE    FAIR      63  62  99 NW8       30.20R                  
$$

WIZ056-057-062-063-064-067-068-231400-
SOUTH CENTRAL WISCONSIN
  
CITY           SKY/WX    TMP DP  RH WIND       PRES   REMARKS
REEDSBURG      FAIR      64  58  80 NW5       30.18R                  
BARABOO/DELLS  FAIR      65  56  74 NW6       30.18R                  
LONE ROCK      NOT AVBL                                               
MINERAL POINT  FAIR      64  63  94 NW6       30.19R                  
MADISON        FAIR      66  58  75 NW8       30.15R                  
MIDDLETON      FAIR      65  58  79 NW12G18   30.17R                  
WATERTOWN      NOT AVBL                                               
MONROE         FAIR      64  56  74 NW6       30.16S                  
JANESVILLE     PTSUNNY   64  61  88 NW6       30.15R                  
$$
 
WIZ051-052-058>065-066-070>072-231400-
SOUTHEAST WISCONSIN
  
CITY           SKY/WX    TMP DP  RH WIND       PRES   REMARKS
MILWAUKEE      PTSUNNY   68  56  65 W8        30.10S                  
WAUKESHA       CLOUDY    61  57  88 W10       30.13S                  
MILWAUKEE/TIMM SUNNY     64  55  72 W7        30.12R                  
RACINE         FAIR      66  57  72 W7        30.12S                  
KENOSHA        FAIR      66  60  81 W6        30.12S                  
FOND DU LAC    FAIR      67  58  72 NW9       30.14R                  
SHEBOYGAN      PTSUNNY   65  58  78 NW9       30.11R                  
WEST BEND      PTSUNNY   63  57  82 NW8       30.11S                  
JUNEAU         CLOUDY    62  59  87 NW6       30.15R                  
$$

LSZ147-162-231400-
LAKE SUPERIOR
  
STATION/POSITION TIME  TEMP    WIND        PRES    WAVE
                       AIR SEA DIR/SP/G            HT/PER
                 (UTC) (F)     (DEG/KT/KT) (MB)    (FT/S)
W MID LAKE BUOY  1150   55 46  280/  4/  6 1020.3R   1
$$
 
LMZ867-665-643>646-231400-
LAKE MICHIGAN
  
STATION/POSITION TIME  TEMP    WIND        PRES    WAVE
                       AIR SEA DIR/SP/G            HT/PER
                 (UTC) (F)     (DEG/KT/KT) (MB)    (FT/S)
CHAMBERS ISLAND  1240   65     310/ 13/ 15 1018.3R
S GREEN BAY BUOY 1230   69 72  340/ 14/ 17 1019.5R
N MID LAKE BUOY  1240   64 65  330/ 14/ 17 1018.2R
NORTHPORT PIER   1240   66     300/  8/  9 1018.3R
KEWAUNEE LAKESHO 1224   64     300/  2/  5 1018.3
SHEBOYGAN LAKESH 1200   61     330/  6/  7 1018.7R
ATWATER BUOY     1230   65 64  290/  4/  6 1019.3F   1
MILWAUKEE LAKESH 1230   66     280/  7/  8   N/A
S MID LAKE BUOY  1240   67 68  330/  8/  8 1019.5R
KENOSHA   LAKESH 1200   64     290/  8/ 10 1019.3
$$

TC  - TEMPERATURE IN CELSIUS
VSB - VISIBILITY IN STATUTE MILES
WCI - WIND CHILL INDEX
HX  - HEAT INDEX